Flag for Philippines Weather past 2 weeks in Olongapo, Philippines

Now
90 °F

Partly sunny.


Feels Like: 100 °F
Forecast: 79 / 90 °F
Wind: 1 mph from North

Location: Subic Bay Weather Station

Current Time: May 29, 2015 at 11:14:08 AM

Latest Report: May 29, 2015 at 10:00 AM


Visibility: N/A

Pressure: 29.86 "Hg

Humidity: 63%

Dew point: 75 °F

Location of OlongapoLocation

Historic Weather in Olongapo — Graph

°F

Olongapo temperature yesterday

Maximum temperature yesterday: 91 °F (at 11:00 AM)
Minimum temperature yesterday: 77 °F (at 5:00 AM)
Average temperature yesterday: 85 °F

Past Weeks' High & Low Weather Summary

 TemperatureHumidityPressure
High97 °F (May 15, 2:00 PM)89% (May 19, 2:00 AM)29.92 "Hg (May 19, 2:00 AM)
Low73 °F (May 20, 5:00 AM)36% (May 15, 12:00 PM)29.71 "Hg (May 17, 4:00 PM)
Average85 °F69%29.82 "Hg
* Reported May 14 10:00 AM — May 29 10:00 AM, Olongapo, Weather by CustomWeather, © 2015

Note: Actual official high and low records may vary slightly from our data, if they occured in-between our weather recording intervals... More about our weather records

Advertising

Olongapo weather history for previous 24 hours

 ConditionsComfort  
Time TempWeatherWind HumidityBarometerVisibility
10:00 AM
Fri, May 29
90 °FPartly sunny.1 mph63%29.86 "HgN/A
9:00 AM90 °FPartly sunny.No wind59%29.86 "HgN/A
8:00 AM86 °FBroken clouds.No wind70%29.83 "HgN/A
7:00 AM82 °FBroken clouds.No wind74%29.80 "HgN/A
6:00 AM77 °FBroken clouds.No wind83%29.80 "HgN/A
5:00 AM77 °FPassing clouds.7 mph83%29.80 "HgN/A
3:00 AM79 °FPassing clouds.No wind84%29.77 "HgN/A
2:00 AM79 °FPassing clouds.No wind84%29.77 "HgN/A
1:00 AM81 °FPassing clouds.No wind79%29.80 "HgN/A
12:00 AM81 °FPassing clouds.No wind84%29.80 "HgN/A
11:00 PM
Thu, May 28
82 °FPassing clouds.No wind74%29.80 "HgN/A
10:00 PM84 °FPassing clouds.No wind74%29.80 "HgN/A
9:00 PM84 °FPassing clouds.2 mph74%29.80 "HgN/A
8:00 PM86 °FPartly cloudy.5 mph70%29.80 "HgN/A
6:00 PM88 °FPartly sunny.5 mph62%29.77 "HgN/A
5:00 PM90 °FPartly sunny.14 mph63%29.74 "HgN/A
4:00 PM88 °FPartly sunny.14 mph66%29.74 "HgN/A
3:00 PM88 °FPartly sunny.14 mph66%29.74 "HgN/A
2:00 PM90 °FScattered clouds.10 mph63%29.74 "HgN/A
1:00 PM90 °FBroken clouds.9 mph63%29.77 "HgN/A
12:00 PM88 °FBroken clouds.9 mph66%29.80 "HgN/A
11:00 AM91 °FScattered clouds.9 mph59%29.80 "HgN/A
Weather by CustomWeather, © 2015

See weather overviewHow to use our weather pages